Location: Sebastopol
(38.4021°N, 122.8239°W)
Time: 15:40:14
(UTC+00:00)

ADEOS Rocket - Pass Details

Date: 29 October 2020
Orbit: 859 x 1306 km, 98.7° (Epoch: 30 November)

Event Time Altitude Azimuth Distance (km) Brightness Sun altitude
Rises 12:42:44 0° 180° (S) 3,448 5.9 -22.5°
Reaches altitude 10° 12:45:11 10° 185° (S) 2,496 5.1 -22.1°
Maximum altitude 12:50:28 50° 260° (W) 1,090 2.8 -21.0°
Drops below altitude 10° 12:55:52 10° 336° (NNW) 2,544 4.9 -20.0°
Sets 12:58:24 0° 341° (NNW) 3,522 5.7 -19.5°
